Location: Bay Ridge
(40.6340°N, 74.0146°W)
Time: 09:00:00
(UTC+00:00)

SL-08 R/B - Pass Details

Date: 15 November 2019
Orbit: 944 x 1008 km, 82.9° (Epoch: 08 December)

Event Time Altitude Azimuth Distance (km) Brightness Sun altitude
Rises 10:52:21 0° 193° (SSW) 3,633 7.5 -9.8°
Reaches altitude 10° 10:54:52 10° 196° (SSW) 2,683 6.8 -9.3°
Maximum altitude 11:00:58 68° 279° (W) 1,021 4.4 -8.2°
Drops below altitude 10° 11:07:02 10° 2° (N) 2,673 6.6 -7.1°
Sets 11:09:33 0° 5° (N) 3,620 7.3 -6.6°
